Weather in Kumba

Cameroon     4°38′00″N   9°26′50″E
temp.,
°C
wind,
m/s
gust,
m/s
humid.,
%
clouds,
%
prec.,
mm/h
press.,
hPa
HPBL,
m
19 may, wed
wed1901:00+20n119635 0.0 101313
04:00+20nne1196100 0.0 101212
07:00+21n119445 0.0 101330
10:00+28s22645 0.0 1014708
13:00+32sse21498 0.0 10111431
16:00+32ssw215047 0.1 10081584
19:00+24w1387100 0.7 101183
22:00+21nnw1198100 2.3 101233
20 may, thu
thu2001:00+21nne119999 4.5 101329
04:00+22ne1197100 0.9 101218
07:00+22ene1198100 1.9 101440
10:00+23ese1297100 1.5 1015234
13:00+23wsw009499 1.9 1013210
16:00+27sw117045 0.0 1010633
19:00+23ssw119319 0.1 101219
22:00+22n019816 0.8 101414
21 may, fri
fri2101:00+21n119862 0.9 101421
04:00+21ne1198100 0.1 101314
07:00+22w0097100 0.1 101426
10:00+26sse128387 0.3 1015536
13:00+30sse226082 0.6 10121341
16:00+29s216339 0.2 10101060
19:00+23ssw129230 0.4 101143
22:00+23nnw009772 0.2 101420
22 may, sat
sat2201:00+22ese119851 1.1 101322
04:00+22ne0099100 0.4 101316
07:00+22nne1199100 2.9 101457
10:00+22ssw0199100 3.8 1016121
13:00+25w1184100 3.9 1013468
16:00+26nnw1273100 0.1 1011656
19:00+23sse009288 0.1 101211
22:00+22n0098100 0.1 101412
23 may, sun
sun2301:00+21nnw1198100 0.1 101314
04:00+21ne0098100 0.0 101221
07:00+22e0195100 0.0 101482
10:00+26se127979 0.1 1014683
13:00+31sse235553 0.1 10111251
16:00+31sse225512 0.1 10091319
19:00+25ssw12877 0.4 101046
22:00+22ssw019980 2.4 101325